Date String (YYYY-MM-DD hh:mm:ss) UTC,Instrument flags,Ambient pressure (hPa),Sample flow (lpm),Bypass flow (lpm),Sample temperature (°C),Ambient temperature (°C),ASC tube jacket temperature (°C),LED temperature (°C),Box temperature (°C),Sample RH (%),Span deviation,Mass concentration (μg/m³),Mass concentration (μg/m³),Mass concentration (μg/m³)
DateTimeUTC,F1_M11,P_M11,Q1_M11,Q2_M11,T1_M11,T2_M11,T3_M11,T4_M11,T5_M11,U1_M11,ZSPAN_M11,X2_M11,X0_M11,X1_M11
2022-05-23 19:00:00,,0824.8,5.01,0.00,29.0,28.0,00.0,38.0,30.8,16.6,0000.0,0003.37,0006.24,0003.15
2022-05-23 19:01:00,,0824.8,5.00,0.00,29.0,28.0,00.0,38.0,30.8,16.7,0000.0,0003.41,0006.67,0003.18
2022-05-23 19:02:00,,0824.9,5.00,0.00,29.0,28.0,00.0,38.0,30.8,17.1,0000.0,0003.46,0006.59,0003.19
2022-05-23 19:03:00,,0824.9,5.00,0.00,29.0,28.0,00.0,38.0,30.8,17.1,0000.0,0003.48,0005.21,0003.22
2022-05-23 19:04:00,,0824.8,5.00,0.00,29.0,28.0,00.0,38.0,30.8,17.2,0000.0,0003.50,0005.31,0003.24
2022-05-23 19:05:00,,0824.8,5.00,0.00,29.0,28.0,00.0,38.0,30.8,17.6,0000.0,0003.53,0005.41,0003.26
2022-05-23 19:06:00,,0824.8,5.00,0.00,29.0,28.0,00.0,38.0,30.9,17.8,0000.0,0003.55,0005.55,0003.27
2022-05-23 19:07:00,,0824.9,5.00,0.00,29.0,28.0,00.0,38.0,30.9,17.8,0000.0,0003.57,0005.67,0003.28
2022-05-23 19:08:00,,0824.9,5.00,0.00,29.0,28.0,00.0,38.0,30.9,17.1,0000.0,0003.59,0005.76,0003.30
2022-05-23 19:09:00,,0824.8,5.00,0.00,29.0,28.0,00.0,38.0,30.9,17.3,0000.0,0003.58,0005.61,0003.30
2022-05-23 19:10:00,,0824.8,4.99,0.00,29.0,28.0,00.0,38.0,30.9,17.1,0000.0,0003.60,0005.69,0003.31
2022-05-23 19:11:00,,0824.7,4.99,0.00,29.0,28.0,00.0,38.0,30.9,17.1,0000.0,0003.60,0005.69,0003.30
2022-05-23 19:12:00,,0824.7,5.01,0.00,29.0,28.1,00.0,38.0,30.9,16.5,0000.0,0003.56,0005.13,0003.31
2022-05-23 19:13:00,,0824.6,4.99,0.00,29.1,28.1,00.0,38.0,30.9,16.3,0000.0,0003.53,0004.95,0003.32
2022-05-23 19:14:00,,0824.7,4.99,0.00,29.1,28.1,00.0,38.0,30.9,16.4,0000.0,0003.54,0005.15,0003.32
2022-05-23 19:15:00,,0824.6,5.01,0.00,29.1,28.1,00.0,38.0,30.9,16.9,0000.0,0003.55,0005.22,0003.32
2022-05-23 19:16:00,,0824.7,5.00,0.00,29.1,28.1,00.0,38.0,30.9,16.6,0000.0,0003.54,0005.15,0003.31
2022-05-23 19:17:00,,0824.6,4.99,0.00,29.1,28.1,00.0,38.0,30.9,16.1,0000.0,0003.50,0004.90,0003.31
2022-05-23 19:18:00,,0824.6,5.01,0.00,29.1,28.1,00.0,38.0,30.9,16.2,0000.0,0003.50,0004.80,0003.32
2022-05-23 19:19:00,,0824.7,4.99,0.00,29.1,28.2,00.0,38.0,31.0,16.0,0000.0,0003.51,0004.81,0003.33
2022-05-23 19:20:00,,0824.7,5.00,0.00,29.1,28.2,00.0,38.0,31.0,16.7,0000.0,0003.53,0004.90,0003.34
2022-05-23 19:21:00,,0824.7,5.01,0.00,29.1,28.2,00.0,38.0,31.0,17.6,0000.0,0003.54,0004.89,0003.35
2022-05-23 19:22:00,,0824.7,5.01,0.00,29.2,28.2,00.0,38.0,31.0,17.3,0000.0,0003.56,0004.92,0003.38
2022-05-23 19:23:00,,0824.9,4.99,0.00,29.2,28.2,00.0,38.1,31.0,16.8,0000.0,0003.59,0004.98,0003.39
2022-05-23 19:24:00,,0824.9,4.99,0.00,29.2,28.2,00.0,38.1,31.0,17.0,0000.0,0003.60,0005.01,0003.39
2022-05-23 19:25:00,,0824.9,5.01,0.00,29.2,28.2,00.0,38.1,31.0,17.3,0000.0,0003.62,0004.97,0003.40
2022-05-23 19:26:00,,0824.9,4.99,0.00,29.2,28.2,00.0,38.1,31.0,16.6,0000.0,0003.63,0004.94,0003.42
2022-05-23 19:27:00,,0824.8,4.99,0.00,29.2,28.2,00.0,38.1,31.0,16.4,0000.0,0003.65,0005.00,0003.44
2022-05-23 19:28:00,,0824.7,5.00,0.00,29.2,28.2,00.0,38.1,31.0,16.8,0000.0,0003.67,0005.03,0003.45
2022-05-23 19:29:00,,0824.7,5.01,0.00,29.2,28.2,00.0,38.1,31.0,16.9,0000.0,0003.68,0005.06,0003.46
2022-05-23 19:30:00,,0824.7,4.99,0.00,29.2,28.2,00.0,38.1,31.0,16.4,0000.0,0003.70,0005.07,0003.47
2022-05-23 19:31:00,,0824.7,4.99,0.00,29.2,28.2,00.0,38.1,31.1,16.1,0000.0,0003.72,0005.12,0003.48
2022-05-23 19:32:00,,0824.6,5.00,0.00,29.2,28.3,00.0,38.1,31.1,16.7,0000.0,0003.75,0005.29,0003.50
2022-05-23 19:33:00,,0824.6,5.00,0.00,29.2,28.3,00.0,38.1,31.1,16.7,0000.0,0003.77,0005.40,0003.50
2022-05-23 19:34:00,,0824.6,4.99,0.00,29.2,28.3,00.0,38.1,31.1,17.5,0000.0,0003.77,0005.58,0003.48
2022-05-23 19:35:00,,0824.6,4.99,0.00,29.3,28.3,00.0,38.1,31.1,17.8,0000.0,0003.77,0005.94,0003.46
2022-05-23 19:36:00,,0824.6,5.00,0.00,29.3,28.3,00.0,38.2,31.1,17.1,0000.0,0003.75,0006.56,0003.44
2022-05-23 19:37:00,,0824.7,5.00,0.00,29.3,28.3,00.0,38.2,31.1,16.6,0000.0,0003.74,0006.60,0003.43
2022-05-23 19:38:00,,0824.8,5.01,0.00,29.3,28.3,00.0,38.2,31.1,16.7,0000.0,0003.73,0006.60,0003.41
2022-05-23 19:39:00,,0824.6,5.00,0.00,29.3,28.3,00.0,38.2,31.1,16.4,0000.0,0003.75,0006.84,0003.41
2022-05-23 19:40:00,,0824.7,4.98,0.00,29.3,28.3,00.0,38.2,31.1,16.2,0000.0,0003.76,0006.94,0003.42
2022-05-23 19:41:00,,0824.7,5.00,0.00,29.3,28.3,00.0,38.2,31.1,15.9,0000.0,0003.75,0006.90,0003.42
2022-05-23 19:42:00,,0824.6,5.02,0.00,29.3,28.4,00.0,38.2,31.1,16.3,0000.0,0003.72,0006.84,0003.41
2022-05-23 19:43:00,,0824.6,4.99,0.00,29.3,28.4,00.0,38.2,31.2,16.0,0000.0,0003.68,0006.71,0003.39
2022-05-23 19:44:00,,0824.6,4.99,0.00,29.3,28.4,00.0,38.2,31.2,16.2,0000.0,0003.66,0006.64,0003.37
2022-05-23 19:45:00,,0824.6,5.01,0.00,29.3,28.4,00.0,38.2,31.2,16.2,0000.0,0003.65,0006.61,0003.37
2022-05-23 19:46:00,,0824.6,5.00,0.00,29.3,28.4,00.0,38.2,31.2,17.0,0000.0,0003.64,0006.33,0003.38
2022-05-23 19:47:00,,0824.6,5.00,0.00,29.4,28.5,00.0,38.2,31.2,17.2,0000.0,0003.62,0005.50,0003.37
2022-05-23 19:48:00,,0824.7,5.00,0.00,29.4,28.5,00.0,38.2,31.2,17.1,0000.0,0003.60,0005.41,0003.36
2022-05-23 19:49:00,,0824.6,4.99,0.00,29.4,28.5,00.0,38.3,31.2,16.5,0000.0,0003.61,0005.50,0003.36
2022-05-23 19:50:00,,0824.7,4.99,0.00,29.4,28.5,00.0,38.3,31.2,15.8,0000.0,0003.60,0005.41,0003.36
2022-05-23 19:51:00,,0824.6,5.00,0.00,29.4,28.5,00.0,38.3,31.2,15.9,0000.0,0003.59,0005.43,0003.35
2022-05-23 19:52:00,,0824.6,5.01,0.00,29.4,28.5,00.0,38.3,31.2,15.5,0000.0,0003.60,0005.54,0003.34
2022-05-23 19:53:00,,0824.6,5.00,0.00,29.4,28.5,00.0,38.3,31.3,16.0,0000.0,0003.62,0005.67,0003.35
2022-05-23 19:54:00,,0824.6,5.00,0.00,29.4,28.5,00.0,38.3,31.3,16.4,0000.0,0003.64,0005.73,0003.34
2022-05-23 19:55:00,,0824.6,5.00,0.00,29.4,28.5,00.0,38.3,31.3,16.5,0000.0,0003.61,0005.65,0003.34
2022-05-23 19:56:00,,0824.7,5.00,0.00,29.4,28.6,00.0,38.3,31.3,16.7,0000.0,0003.59,0005.47,0003.33
2022-05-23 19:57:00,,0824.6,4.99,0.00,29.5,28.6,00.0,38.3,31.3,16.7,0000.0,0003.59,0005.56,0003.32
2022-05-23 19:58:00,,0824.6,5.01,0.00,29.5,28.6,00.0,38.3,31.3,16.8,0000.0,0003.58,0005.66,0003.32
2022-05-23 19:59:00,,0824.7,5.01,0.00,29.5,28.6,00.0,38.4,31.3,16.7,0000.0,0003.58,0005.66,0003.32
